TV
NORAD ID: 23686
Int'l Code: 1995-055A
Perigee: 35,782.8 km
Apogee: 35,806.8 km
Inclination: 2.6 °
Period: 1,436.1 minutes
Semi major axis: 42165 km
Launch date: October 19, 1995
Source: (SES)
Comments: 54 to 108 digital TV programs to W. Europe; 18 Ku-band transponders; backup for 1B, 1C or 1D
Two Line Element Set (TLE):
1 23686U 95055A 13169.15600317 .00000000 00000-0 10000-3 0 7815
2 23686 002.6148 071.4570 0002849 007.4188 352.1452 01.00268089 64751
Source: AFSPC
NASA's NSSDC Master Catalog entry for ASTRA 1E